[[{"header":{"parameterUnit":"m.s-1","parameterCategory":1,"la1":30.2991,"la2":30.254,"lo1":-89.0895,"lo2":-89.0444,"dy":0.0017,"dx":0.0017,"nx":28,"ny":28,"refTime":"2024-05-08T03:00:00:Z","depth":0,"parameterNumber":2,"parameterNumberName":"U-component_of_WINDS"},"data":[0,0,0,0,0,0,0,0,0,0,0,0,0,0,0,0,0,0,0,0,0,0,0,0,0,0,0,0,0,0,0,0,0,0,0,0,0,0,0,0,0,0,0,0,0,0,0,0,0,0,0,0,0,0,0,0,0,0,0.9723,0.9724,0,0.9836,0.9837,0.9838,0.9858,0.9857,0.9857,0.9856,0.997,0.9974,0.9977,0,0,0,0,0,0,0,0,0,0,0,0,0,0.9524,0.9528,0.9723,0.9725,0.9726,0.9835,0.9837,0.9839,0.9859,0.9857,0.9856,0.9855,0.9968,0.9973,0.9978,0,0,0,0,0,0,0,0,0,0,0,0,0,0.9621,0.9529,0.9723,0.9749,0.9753,0.9835,0.9837,0.9839,0.9859,0.9857,0.9856,0.9855,0.9967,0.9973,0.9978,1.0042,0,0,0.9996,0.9999,0,0,0,0,0,0,0,0,0.9615,0.9628,0.9744,0.9748,0.9752,0.9832,0.9809,0.9907,0.9859,0.9818,0.9856,0.9854,0.9925,0.9934,0.9958,1.0048,1.0052,0.9997,1.0,1.0003,1.0005,0,0,0,0,0,0,0,0.9609,0.9623,0.9768,0.9746,0.975,0.9755,0.9767,0.9827,0.9878,0.9822,0.9824,0.9837,0.9927,0.9952,0.9961,1.0054,0.9997,1.0002,1.0005,1.0008,1.0201,1.0202,0,0,0,0,0,0,0.9597,0.9618,0.9764,0.9771,0.9679,0.976,0.9773,0.9807,0.9877,0.9887,0.9838,0.9837,0.9943,0.9954,0.9965,1.0044,1.0003,1.0008,1.0012,1.0199,1.0201,1.0203,0,0,0,0,0,0,0.9593,0.961,0.9759,0.9695,0.9714,0.9764,0.9803,0.981,0.9836,0.9889,0.9898,0.9855,0.9943,0.9957,1.0023,1.0048,1.0011,1.0016,1.0197,1.02,1.0202,1.0202,0,0,0,0,0,0,0.9587,0.9609,0.9634,0.9695,0.9718,0.9816,0.9804,0.9813,0.9846,0.9847,0.9908,0.9917,0.9943,1.0014,1.0029,1.0055,1.0021,1.0195,1.0198,1.0201,1.02,1.0204,1.0208,0,0,0,0,0,0.958,0.9629,0.9635,0.9653,0.975,0.9817,0.983,0.9859,0.9848,0.9874,0.9908,0.9915,1.0043,1.0021,1.0037,1.0066,1.0194,1.0197,1.0201,1.0198,1.0203,1.0208,0,0,0,0,0,0,0.9569,0.9638,0.9645,0.9716,0.976,0.982,0.9853,0.9863,0.9912,0.991,0.9944,0.9957,1.0021,1.005,1.0024,1.0131,1.0118,1.0125,1.011,1.0115,1.0119,1.011,1.0026,0,0,0,0,0,0.9575,0.9624,0.9681,0.9738,0.976,0.9803,0.9833,0.9852,0.9899,0.9918,0.9957,1.0003,1.0053,1.0086,1.0135,1.0204,1.0218,1.0233,1.0236,1.0239,1.0245,1.0283,1.029,1.0215,1.0215,1.0215,0,0,0.9587,0.9631,0.966,0.9737,0.9774,0.9823,0.9819,0.9872,0.9908,0.9926,0.9991,1.0021,1.0074,1.0141,1.0173,1.0168,1.0269,1.0244,1.0246,1.025,1.0287,1.0294,1.0301,1.0217,1.0217,1.0216,0,0,0.9635,0.9674,0.9725,0.9762,0.9818,0.9846,0.9858,0.9917,0.9938,1.0003,1.0017,1.0061,1.0148,1.0185,1.0215,1.0276,1.0284,1.0291,1.0312,1.0348,1.0354,1.0359,1.0381,1.0388,1.0297,1.0297,1.0297,0,0.9643,0.9719,0.975,0.9802,0.9835,0.9854,0.9905,0.994,1.0009,1.0031,1.0024,1.0132,1.017,1.0246,1.026,1.0285,1.0299,1.0284,1.0351,1.0357,1.0362,1.0383,1.0391,1.0297,1.0297,1.0297,1.0297,0,0.9726,0.9779,0.9813,0.988,0.9917,0.9968,1.0006,1.004,1.0055,1.0083,1.0149,1.0194,1.0253,1.0272,1.0287,1.035,1.0345,1.0344,1.0331,1.0369,1.0389,1.0397,1.0298,1.0298,1.0298,1.0298,0,0,0.977,0.9853,0.9865,0.9895,0.9958,0.9999,1.0051,1.0109,1.0136,1.0183,1.0227,1.03,1.0299,1.0333,1.0353,1.0385,1.043,1.038,1.0382,1.0387,1.0501,1.0501,1.051,1.0436,1.0437,1.0439,1.0496,0,0.9825,0.9919,0.9948,1.0027,1.0075,1.0093,1.0138,1.0181,1.0209,1.0254,1.0284,1.0335,1.0331,1.0351,1.0384,1.0417,1.0453,1.0414,1.0476,1.0478,1.0462,1.052,1.0521,1.0573,1.0505,1.0506,1.0507,0,0.9902,0.995,1.0034,1.009,1.0112,1.0152,1.0207,1.0249,1.0298,1.0316,1.0354,1.0371,1.0425,1.0409,1.0484,1.0457,1.0484,1.0504,1.0507,1.0513,1.0494,1.0528,1.0591,1.0598,1.052,1.0519,1.0518,0,0.9925,1.0011,1.0072,1.0097,1.0165,1.0192,1.0222,1.027,1.0302,1.035,1.0371,1.0424,1.0453,1.0494,1.0524,1.051,1.0596,1.0583,1.0612,1.0612,1.0629,1.0628,1.0697,1.0648,1.0648,1.0648,1.0647,0,0.9983,1.0033,1.0083,1.012,1.0177,1.0209,1.0264,1.0294,1.0336,1.0379,1.0398,1.0438,1.0476,1.0521,1.0545,1.0603,1.0616,1.0632,1.0637,1.063,1.0628,1.0648,1.0644,1.065,1.0649,1.0649,1.0648,0,1.0018,1.0053,1.0121,1.0179,1.0195,1.0234,1.0284,1.032,1.0349,1.0403,1.0418,1.0462,1.0516,1.055,1.0619,1.0635,1.0698,1.0703,1.0681,1.0684,1.0711,1.0708,1.0795,1.0807,1.075,1.0751,1.0751,0,1.0052,1.0091,1.0154,1.0184,1.0214,1.0262,1.0296,1.0329,1.0363,1.0421,1.0451,1.0505,1.0551,1.0636,1.0674,1.0726,1.0732,1.0759,1.074,1.0731,1.0732,1.0729,1.0732,1.0762,1.0762,1.0763,1.0763,0,1.0109,1.0125,1.0172,1.0226,1.0265,1.0309,1.0353,1.0377,1.0417,1.0454,1.0509,1.0545,1.0614,1.0668,1.0724,1.0753,1.0765,1.0769,1.0778,1.077,1.0756,1.0763,1.0689,1.0766,1.0766,1.0766,1.0766,1.0765,1.0144,1.018,1.0229,1.0281,1.0318,1.0358,1.0395,1.0429,1.0475,1.0535,1.0551,1.0609,1.0656,1.0732,1.0763,1.0808,1.0804,1.0818,1.0821,1.0824,1.0824,1.0749,1.0818,1.0818,1.0818,1.0818,1.0818,0,1.0202,1.0234,1.0282,1.0343,1.0384,1.0391,1.044,1.0474,1.0524,1.0568,1.0612,1.0675,1.0728,1.077,1.0824,1.0851,1.0858,1.0864,1.0862,1.0869,1.0824,1.081,1.0858,1.0858,1.0858,1.0858,1.0858,1.0858,1.0236,1.0296,1.0318,1.0395,1.0428,1.0484,1.0511,1.0549,1.0583,1.0653,1.0697,1.0724,1.0767,1.0824,1.0872,1.0883,1.0902,1.0907,1.0919,1.0876,1.0872,1.0868,1.0855,1.0911,1.0911,1.096,1.096,1.096]},{"header":{"parameterUnit":"m.s-1","parameterCategory":1,"la1":30.2991,"la2":30.254,"lo1":-89.0895,"lo2":-89.0444,"dy":0.0017,"dx":0.0017,"nx":28,"ny":28,"refTime":"2024-05-08T03:00:00:Z","depth":0,"parameterNumber":3,"parameterNumberName":"V-component_of_WINDS"},"data":[0,0,0,0,0,0,0,0,0,0,0,0,0,0,0,0,0,0,0,0,0,0,0,0,0,0,0,0,0,0,0,0,0,0,0,0,0,0,0,0,0,0,0,0,0,0,0,0,0,0,0,0,0,0,0,0,0,0,4.4638,4.4639,0,4.476,4.4761,4.4763,4.4753,4.4751,4.4749,4.4747,4.4868,4.4872,4.4877,0,0,0,0,0,0,0,0,0,0,0,0,0,4.439,4.4395,4.4638,4.4639,4.4641,4.476,4.4762,4.4763,4.4753,4.4751,4.4748,4.4746,4.4866,4.4872,4.4878,0,0,0,0,0,0,0,0,0,0,0,0,0,4.4503,4.4396,4.4638,4.465,4.4653,4.476,4.4762,4.4764,4.4753,4.4751,4.4748,4.4745,4.4864,4.4871,4.4878,4.4979,0,0,4.4901,4.4904,0,0,0,0,0,0,0,0,4.4497,4.4512,4.4647,4.465,4.4652,4.4738,4.4718,4.4836,4.4754,4.4715,4.4747,4.4744,4.4826,4.4837,4.4866,4.4985,4.499,4.4902,4.4906,4.4909,4.4911,0,0,0,0,0,0,0,4.4489,4.4507,4.4686,4.4649,4.4652,4.4648,4.4661,4.474,4.4784,4.4718,4.4718,4.4733,4.4827,4.4859,4.4868,4.4992,4.4901,4.4908,4.4913,4.4915,4.5199,4.5202,0,0,0,0,0,0,4.4479,4.4501,4.4682,4.469,4.4566,4.4655,4.4669,4.4713,4.4784,4.4792,4.4735,4.4732,4.4847,4.486,4.4873,4.4995,4.4909,4.4916,4.492,4.5196,4.5199,4.5203,0,0,0,0,0,0,4.4474,4.4495,4.4677,4.4595,4.4618,4.4662,4.4712,4.4717,4.4749,4.4796,4.4804,4.4759,4.4846,4.4862,4.4953,4.4999,4.4919,4.4926,4.5192,4.5197,4.5201,4.5241,0,0,0,0,0,0,4.4467,4.4494,4.4534,4.4596,4.4622,4.4757,4.4714,4.4722,4.4762,4.4759,4.4821,4.4828,4.4845,4.4942,4.496,4.5008,4.4932,4.5188,4.5194,4.52,4.5235,4.5246,4.5255,0,0,0,0,0,4.4458,4.4539,4.4536,4.4558,4.4674,4.476,4.4775,4.4793,4.4766,4.4805,4.4836,4.4826,4.4991,4.4951,4.4972,4.5022,4.5185,4.5192,4.5199,4.5231,4.5244,4.5255,0,0,0,0,0,0,4.4479,4.4547,4.4545,4.4649,4.4699,4.4758,4.4809,4.4807,4.4864,4.4859,4.4878,4.4892,4.4983,4.5011,4.4966,4.5123,4.5084,4.5096,4.5101,4.5114,4.5124,4.5115,4.4938,0,0,0,0,0,4.4496,4.4562,4.4618,4.4704,4.4729,4.4765,4.4803,4.4813,4.4865,4.4886,4.4923,4.4972,4.5035,4.5076,4.5136,4.5239,4.5252,4.5284,4.5294,4.5301,4.5311,4.5367,4.5382,4.5226,4.5226,4.5225,0,0,4.4532,4.4577,4.4617,4.4709,4.4749,4.4816,4.4783,4.4854,4.4903,4.4896,4.4985,4.5013,4.507,4.5167,4.5211,4.5193,4.5357,4.531,4.5316,4.5322,4.5376,4.539,4.5404,4.523,4.523,4.5229,0,0,4.463,4.4672,4.4748,4.4789,4.4851,4.4874,4.4892,4.4952,4.4971,4.5061,4.5056,4.5114,4.5222,4.5262,4.5296,4.5409,4.5403,4.5428,4.548,4.5534,4.5547,4.5558,4.5598,4.5612,4.5438,4.5438,4.5438,0,4.4666,4.4768,4.4787,4.486,4.49,4.4898,4.4975,4.5013,4.509,4.5117,4.5096,4.5231,4.5268,4.5375,4.5402,4.543,4.5451,4.5422,4.5544,4.5555,4.5565,4.5604,4.5619,4.544,4.544,4.544,4.544,0,4.4809,4.4879,4.4933,4.501,4.5056,4.513,4.5159,4.5203,4.5208,4.5233,4.5323,4.5368,4.5437,4.5463,4.5469,4.557,4.5557,4.554,4.5501,4.5583,4.5619,4.5634,4.5444,4.5443,4.5443,4.5442,0,0,4.4925,4.5012,4.5031,4.5066,4.5133,4.5187,4.526,4.5329,4.5366,4.5419,4.548,4.5571,4.5556,4.5595,4.5604,4.5652,4.5738,4.5628,4.563,4.5647,4.5852,4.5866,4.5882,4.5734,4.5737,4.5739,4.5848,0,4.5031,4.5163,4.5182,4.5298,4.5363,4.5361,4.5424,4.5472,4.5496,4.5553,4.5579,4.5644,4.5618,4.5642,4.5689,4.5718,4.578,4.571,4.579,4.5793,4.5777,4.5902,4.5916,4.6016,4.5862,4.5864,4.5866,0,4.5172,4.5231,4.5354,4.5412,4.544,4.5497,4.5562,4.5616,4.5669,4.5683,4.5727,4.5731,4.5805,4.5763,4.5864,4.5817,4.585,4.5869,4.5874,4.5882,4.5835,4.5913,4.6049,4.6064,4.5889,4.5887,4.5885,0,4.5245,4.5354,4.5442,4.5471,4.5541,4.5581,4.5612,4.5662,4.5702,4.5758,4.5784,4.5847,4.5882,4.5929,4.5949,4.5917,4.605,4.6009,4.6063,4.6062,4.6091,4.6089,4.6234,4.6112,4.6112,4.6112,4.6111,0,4.5361,4.5437,4.5476,4.553,4.5613,4.5633,4.5715,4.5744,4.5788,4.5846,4.5847,4.5901,4.5925,4.5982,4.5997,4.6079,4.6094,4.6107,4.6111,4.6108,4.6106,4.613,4.6124,4.6116,4.6115,4.6114,4.6113,0,4.5457,4.5486,4.5582,4.5641,4.5657,4.5716,4.5765,4.5816,4.584,4.5914,4.5932,4.5969,4.6036,4.6061,4.6142,4.6153,4.6247,4.6245,4.623,4.6231,4.6283,4.6278,4.6449,4.6472,4.6335,4.6336,4.6337,0,4.553,4.5588,4.5653,4.5693,4.5726,4.579,4.5831,4.5852,4.5895,4.5959,4.6002,4.607,4.6125,4.6232,4.6265,4.6327,4.6326,4.6382,4.6335,4.6331,4.6327,4.6324,4.6329,4.639,4.6392,4.6393,4.6394,0,4.5656,4.5667,4.5728,4.5794,4.5844,4.5896,4.5946,4.5978,4.6007,4.6054,4.6124,4.6167,4.6251,4.6317,4.6381,4.641,4.6407,4.6408,4.6424,4.6422,4.6411,4.6418,4.6254,4.6404,4.6403,4.6403,4.6402,4.6402,4.5743,4.5794,4.5848,4.5915,4.5956,4.6003,4.6054,4.6085,4.6144,4.6215,4.6223,4.6298,4.6347,4.6433,4.6465,4.6523,4.6508,4.653,4.6536,4.6541,4.6545,4.6402,4.6534,4.6534,4.6534,4.6534,4.6533,0,4.5869,4.5903,4.5965,4.6037,4.6089,4.6082,4.6138,4.6181,4.6248,4.6295,4.635,4.643,4.6494,4.6532,4.6596,4.6635,4.6635,4.6651,4.6648,4.6655,4.6555,4.6536,4.665,4.665,4.665,4.665,4.665,4.665,4.5941,4.6027,4.6045,4.6151,4.6185,4.626,4.6292,4.6335,4.6373,4.6462,4.6516,4.6541,4.6584,4.6652,4.671,4.6719,4.6742,4.676,4.6768,4.6674,4.6662,4.6651,4.6632,4.6765,4.6765,4.6863,4.6864,4.6865]}]]